ATLAS 5 CENTAUR DEB, 51477

Orbit data source: Space-Track

ATLAS 5 CENTAUR DEB, 51477 is space debris in HEO originally from a launch on Wed, 17 Sep 2014 UTC launched from the Air Force Eastern Test Range (AFETR). Debris objects in space refer to the collection of defunct objects orbiting the Earth. Examples of debris include non-operational satellites, rocket bodies, and fragments generated from explosions, collisions, or faulty payload assembly.

Loading next visibility...
Identifier
51477, 2014-055DH
Orbit
HEO
Country
Flag of USUS
Related business
Flag of USUnited Launch Alliance/Lockheed Martin (US)
Manufacturer
Unknown
Mission
Spacecraft
Bus & Motor
Unknown
Mass
Unknown
Launch date (UTC)
2014-09-17 (11 years ago)
Launch vehicle
Unknown
Launch site
Air Force Eastern Test Range (AFETR)
Object type
Payload
Rocket body
Debris
Shape & HBR
Unknown shape, 1.1 m
Radar Cross Section
RCS unknown

Expand to show TLE details & history
Last TLE update: 4 days ago

TLE from 4 days ago
0 ATLAS 5 CENTAUR DEB
1 51477U 14055DH  26069.17087667  .00000047  00000-0  00000-0 0  9995
2 51477  21.1334  94.1202 5150846 255.3499  44.3034  1.94665524 25056
Epoch: 2026-03-10T04:06Z
TLE epoch observation values (Epoch: 2026-03-10T04:06:03.744Z)
Latitude
-0.00005°
Longitude
-135.18095°
Altitude
16,501.492 km
Speed
4.487 km/s
True Right ascension
06h 16m 45s
True Declination
0° 00' 00"
Sunlit
Object was in daylight at epoch
Visualization orbit readout
Latitude
Unknown
Longitude
Unknown
Altitude
Unknown
Speed
Unknown
Apparent Right ascension
Unknown
Apparent Declination
Unknown
Sunlit
N/A
Visualization observer readout
Local Sidereal Time
10:05:26
Azimuth
Unknown
Elevation
Unknown
Doppler factor
Unknown
Orbital elements
Apogee altitude
34,674.993 km
Perigee altitude
6,761.258 km
Semi-major axis
27,096.262 km
Eccentricity
0.51508
Inclination
21.1334°
RAAN
94.1202°
Arg. of periapsis
255.3499°
True anomaly
104.6343°
Mean anomaly
44.3034°
Eccentric anomaly
72.44042°
Mean motion
0.48661 °/min
Orbital period
739.82 mins
BSTAR
0
Loading maneuver chart data...
Computing Atmospheric mass density...

Documentation

Showing up to 5 results
|